Weather History for KMMT - October, 2012

Change the Weather History Date:

Wednesday, October 3, 2012

  Actual Average Record
Temperature  
Mean Temperature 76 °F -  
Max Temperature 82 °F 76 °F 87 °F (2002)
Min Temperature 71 °F 57 °F 38 °F (2011)
Cooling Degree Days 11    
Growing Degree Days 26 (Base 50)    
Moisture  
Dew Point 71 °F    
Average Humidity 91    
Maximum Humidity 100    
Minimum Humidity 57    
Precipitation  
Precipitation 0.00 in - - ()
Sea Level Pressure  
Sea Level Pressure 30.09 in    
Wind  
Wind Speed 2 mph (SSW)    
Max Wind Speed 7 mph    
Max Gust Speed -    
Visibility 8 miles    
Events Rain    
Averages and records for this station are not official NWS values.
T = Trace of Precipitation, MM = Missing Value Source: NWS Daily Summary

Daily Weather History Graph

Daily Weather History Graph

Search for Another Location

Airport or City:

Trip Planner

Search our weather history database for the weather conditions in past years. The results will help you decide how hot, cold, wet, or windy it might be!

Date:

Astronomy

Oct. 03, 2012 Rise Set
Actual Time 7:19 AM EDT 7:04 PM EDT
Civil Twilight 6:54 AM EDT 7:29 PM EDT
Nautical Twilight 6:25 AM EDT 7:57 PM EDT
Astronomical Twilight 5:56 AM EDT 8:26 PM EDT
Moon 9:06 PM EDT (10/3) 10:30 AM EDT (10/3)
Length of Visible Light 12h 34m
Length of Day
11h 44m
Waning Gibbous, 89% of the Moon is Illuminated
Oct 3
Waning Gibbous
Oct 8
Last Quarter
Oct 15
New
Oct 21
First Quarter
Oct 29
Full

Hourly Weather History & Observations

Time (EDT) Temp. Heat Index Dew Point Humidity Pressure Visibility Wind Dir Wind Speed Gust Speed Precip Events Conditions
12:55 AM 73.2 °F - 73.2 °F 100% 29.99 in 10.0 mi SE 3.5 mph - N/A   Scattered Clouds
12:59 AM 73.4 °F - 73.4 °F 100% 29.99 in 10.0 mi SE 3.5 mph - N/A   Mostly Cloudy
1:03 AM 73.4 °F - 73.4 °F 100% 29.99 in 10.0 mi SE 3.5 mph - N/A   Mostly Cloudy
1:17 AM 73.4 °F - 73.4 °F 100% 29.99 in 10.0 mi Calm Calm - N/A   Mostly Cloudy
1:30 AM 73.4 °F - 73.4 °F 100% 29.99 in 10.0 mi SE 3.5 mph - N/A   Overcast
1:55 AM 73.8 °F - 73.8 °F 100% 30.00 in 9.0 mi Calm Calm - N/A   Overcast
2:55 AM 73.8 °F - 73.8 °F 100% 30.00 in 10.0 mi Calm Calm - N/A   Overcast
3:55 AM 73.8 °F - 73.8 °F 100% 30.01 in 10.0 mi Calm Calm - N/A   Overcast
4:09 AM 73.4 °F - 73.4 °F 100% 30.01 in 9.0 mi Calm Calm - N/A   Overcast
4:16 AM 73.4 °F - 73.4 °F 100% 30.01 in 9.0 mi Calm Calm - N/A   Mostly Cloudy
4:20 AM 73.4 °F - 73.4 °F 100% 30.01 in 9.0 mi SE 3.5 mph - N/A   Mostly Cloudy
4:40 AM 73.4 °F - 73.4 °F 100% 30.01 in 8.0 mi ESE 3.5 mph - N/A   Mostly Cloudy
4:55 AM 72.9 °F - 72.9 °F 100% 30.01 in 9.0 mi Calm Calm - N/A   Overcast
5:11 AM 73.4 °F - 73.4 °F 100% 30.01 in 9.0 mi Calm Calm - N/A   Mostly Cloudy
5:55 AM 72.0 °F - 72.0 °F 100% 30.03 in 3.0 mi Calm Calm - N/A   Mostly Cloudy
6:22 AM 71.6 °F - 71.6 °F 100% 30.04 in 3.0 mi Calm Calm - N/A   Overcast
6:35 AM 71.6 °F - 71.6 °F 100% 30.04 in 3.0 mi Calm Calm - N/A   Overcast
6:50 AM 71.6 °F - 71.6 °F 100% 30.04 in 3.0 mi Calm Calm - N/A   Overcast
6:55 AM 72.1 °F - 72.1 °F 100% 30.05 in 4.0 mi Calm Calm - N/A   Overcast
7:04 AM 71.6 °F - 71.6 °F 100% 30.05 in 4.0 mi Calm Calm - N/A   Overcast
7:24 AM 71.6 °F - 71.6 °F 100% 30.06 in 2.5 mi South 3.5 mph - N/A   Overcast
7:55 AM 72.9 °F - 72.9 °F 100% 30.07 in 2.5 mi South 3.5 mph - N/A   Overcast
8:21 AM 73.4 °F - 73.4 °F 100% 30.08 in 4.0 mi SW 4.6 mph - N/A   Overcast
8:36 AM 73.4 °F - 73.4 °F 100% 30.09 in 7.0 mi WSW 4.6 mph - N/A   Mostly Cloudy
8:43 AM 73.4 °F - 73.4 °F 100% 30.09 in 7.0 mi West 4.6 mph - N/A   Mostly Cloudy
8:55 AM 73.0 °F - 73.0 °F 100% 30.09 in 10.0 mi Calm Calm - N/A   Mostly Cloudy
9:55 AM 75.4 °F - 68.7 °F 80% 30.12 in 10.0 mi West 3.5 mph - N/A   Mostly Cloudy
10:55 AM 77.7 °F - 66.7 °F 69% 30.12 in 10.0 mi Calm Calm - N/A   Mostly Cloudy
11:55 AM 80.1 °F 81.9 °F 64.9 °F 60% 30.14 in 10.0 mi West 4.6 mph - N/A   Mostly Cloudy
12:55 PM 80.6 °F 82.3 °F 64.4 °F 58% 30.14 in 10.0 mi WNW 6.9 mph - N/A   Mostly Cloudy
1:55 PM 79.7 °F - 63.3 °F 57% 30.12 in 10.0 mi WSW 6.9 mph - N/A   Mostly Cloudy
2:55 PM 81.5 °F 83.3 °F 64.8 °F 57% 30.11 in 10.0 mi Calm Calm - N/A   Mostly Cloudy
3:55 PM 80.6 °F 82.5 °F 65.5 °F 60% 30.11 in 10.0 mi SW 5.8 mph - N/A   Mostly Cloudy
4:55 PM 79.5 °F - 65.7 °F 62% 30.12 in 10.0 mi Calm Calm - N/A   Mostly Cloudy
5:55 PM 78.1 °F - 68.7 °F 73% 30.12 in 10.0 mi Calm Calm - N/A   Mostly Cloudy
6:55 PM 75.2 °F - 69.4 °F 82% 30.14 in 10.0 mi Calm Calm - N/A   Mostly Cloudy
7:55 PM 73.9 °F - 69.3 °F 85% 30.14 in 10.0 mi Calm Calm - N/A   Overcast
8:55 PM 72.7 °F - 69.4 °F 90% 30.17 in 10.0 mi Calm Calm - N/A   Overcast
9:55 PM 73.6 °F - 68.9 °F 85% 30.19 in 10.0 mi WSW 4.6 mph - N/A   Overcast
10:51 PM 73.4 °F - 69.8 °F 88% 30.21 in 10.0 mi Calm Calm - N/A Rain Light Rain
10:55 PM 73.0 °F - 69.1 °F 87% 30.21 in 10.0 mi Calm Calm - 0.00 in Rain Light Rain
11:13 PM 71.6 °F - 69.8 °F 94% 30.21 in 10.0 mi Calm Calm - N/A   Scattered Clouds
11:33 PM 71.6 °F - 69.8 °F 94% 30.21 in 10.0 mi Calm Calm - N/A   Light Drizzle
11:49 PM 71.6 °F - 69.8 °F 94% 30.20 in 10.0 mi East 4.6 mph - N/A   Mostly Cloudy
11:55 PM 71.2 °F - 70.0 °F 96% 30.20 in 10.0 mi Calm Calm - 0.00 in   Scattered Clouds
11:56 PM 71.6 °F - 69.8 °F 94% 30.20 in 10.0 mi Calm Calm - N/A   Light Drizzle